TimeCDT,TemperatureF,Dew PointF,Humidity,Sea Level PressureIn,VisibilityMPH,Wind Direction,Wind SpeedMPH,Gust SpeedMPH,PrecipitationIn,Events,Conditions,WindDirDegrees,DateUTC
12:53 AM,79.0,73.9,84,29.98,10.0,South,10.4,-,N/A,,Clear,180,2012-09-02 05:53:00
1:53 AM,78.1,73.9,87,29.99,10.0,SSE,5.8,-,N/A,,Clear,160,2012-09-02 06:53:00
2:53 AM,77.0,73.4,89,29.97,10.0,SSW,9.2,-,N/A,,Clear,210,2012-09-02 07:53:00
3:53 AM,77.0,73.0,88,29.98,10.0,SSW,10.4,-,N/A,,Clear,200,2012-09-02 08:53:00
4:53 AM,77.0,73.0,88,29.98,10.0,SSW,12.7,-,N/A,,Clear,210,2012-09-02 09:53:00
5:53 AM,77.0,72.0,84,29.98,10.0,SSW,17.3,-,N/A,,Clear,210,2012-09-02 10:53:00
6:53 AM,77.0,72.0,84,29.99,10.0,SSW,12.7,-,N/A,,Clear,210,2012-09-02 11:53:00
7:53 AM,78.1,73.0,84,30.01,10.0,SW,12.7,-,N/A,,Clear,220,2012-09-02 12:53:00
8:53 AM,81.0,73.0,77,30.01,10.0,SW,15.0,-,N/A,,Clear,230,2012-09-02 13:53:00
9:53 AM,84.9,73.0,67,30.02,10.0,SW,18.4,24.2,N/A,,Clear,230,2012-09-02 14:53:00
10:53 AM,87.1,73.9,65,30.01,10.0,WSW,13.8,-,N/A,,Partly Cloudy,240,2012-09-02 15:53:00
11:53 AM,90.0,73.9,59,30.00,10.0,SW,17.3,23.0,N/A,,Clear,230,2012-09-02 16:53:00
12:53 PM,91.0,73.0,55,29.97,10.0,SW,16.1,-,N/A,,Clear,220,2012-09-02 17:53:00
1:53 PM,93.0,73.9,54,29.95,10.0,SSW,15.0,-,N/A,,Clear,210,2012-09-02 18:53:00
2:53 PM,91.9,73.9,55,29.92,10.0,SSW,15.0,-,N/A,,Clear,210,2012-09-02 19:53:00
3:53 PM,93.0,73.9,54,29.91,10.0,SSW,13.8,-,N/A,,Partly Cloudy,210,2012-09-02 20:53:00
4:53 PM,93.0,73.9,54,29.90,10.0,SW,16.1,23.0,N/A,,Clear,220,2012-09-02 21:53:00
5:53 PM,91.9,73.9,55,29.89,10.0,SW,16.1,-,N/A,,Clear,220,2012-09-02 22:53:00
6:53 PM,90.0,73.9,59,29.88,10.0,SW,11.5,-,N/A,,Clear,220,2012-09-02 23:53:00
7:53 PM,87.1,73.9,65,29.88,10.0,SW,10.4,-,N/A,,Clear,220,2012-09-03 00:53:00
8:53 PM,84.9,73.9,69,29.89,10.0,SSW,8.1,-,N/A,,Clear,210,2012-09-03 01:53:00
9:53 PM,84.9,73.9,69,29.90,10.0,SW,10.4,-,N/A,,Clear,220,2012-09-03 02:53:00
10:53 PM,84.0,73.9,72,29.90,10.0,SW,11.5,-,N/A,,Clear,220,2012-09-03 03:53:00
11:53 PM,84.0,73.0,69,29.91,10.0,SW,10.4,-,N/A,,Clear,220,2012-09-03 04:53:00